| time (UTC) | temp C | wind direction | speed KPH | gust KPH | rain 1hr cm | rain 24hr cm | rain mn cm | humidity % | barometer mb |
| 20260504045017 | 8 | 0.0 | 0.0 | 0.00 | 0.00 | 0.00 | 87 | 1009.0 | |
| 20260504044036 | 8 | 0.0 | 0.0 | 0.00 | 0.00 | 0.00 | 87 | 1009.0 | |
| 20260504043017 | 8 | 0.0 | 0.0 | 0.00 | 0.00 | 0.00 | 86 | 1009.0 | |
| 20260504042017 | 8 | 0.0 | 0.0 | 0.00 | 0.00 | 0.00 | 86 | 1009.0 | |
| 20260504041017 | 8 | 0.0 | 0.0 | 0.00 | 0.00 | 0.00 | 85 | 1009.1 | |
| 20260504040057 | 8 | 0.0 | 0.0 | 0.00 | 0.00 | 0.00 | 85 | 1009.1 | |
| 20260504035017 | 8 | 0.0 | 0.0 | 0.00 | 0.00 | 0.00 | 85 | 1009.3 | |
| 20260504034017 | 8 | 0.0 | 0.0 | 0.00 | 0.00 | 0.00 | 84 | 1009.3 | |
| 20260504033017 | 9 | 0.0 | 0.0 | 0.00 | 0.00 | 0.00 | 82 | 1009.5 | |
| 20260504032017 | 9 | 0.0 | 0.0 | 0.00 | 0.00 | 0.00 | 82 | 1009.4 | |
| 20260504031037 | 10 | 0.0 | 0.0 | 0.00 | 0.00 | 0.00 | 80 | 1009.4 | |
| 20260504030036 | 10 | 0.0 | 0.0 | 0.00 | 0.00 | 0.00 | 78 | 1009.5 | |
| 20260504025017 | 10 | 0.0 | 0.0 | 0.00 | 0.00 | 0.00 | 76 | 1009.7 | |
| 20260504024017 | 10 | 0.0 | 3.2 | 0.00 | 0.00 | 0.00 | 73 | 1010.0 | |
| 20260504023017 | 10 | 299 | 1.6 | 6.4 | 0.00 | 0.00 | 0.00 | 72 | 1010.2 |
| 20260504022017 | 10 | 283 | 3.2 | 12.9 | 0.00 | 0.00 | 0.00 | 72 | 1010.1 |
| 20260504021057 | 10 | 307 | 6.4 | 17.7 | 0.00 | 0.00 | 0.00 | 71 | 1010.3 |
| 20260504020017 | 11 | 306 | 9.7 | 25.7 | 0.00 | 0.00 | 0.00 | 69 | 1010.6 |
| 20260504015017 | 11 | 322 | 9.7 | 17.7 | 0.00 | 0.00 | 0.00 | 65 | 1010.7 |
| 20260504014017 | 12 | 319 | 6.4 | 14.5 | 0.00 | 0.00 | 0.00 | 61 | 1010.5 |
| 20260504013017 | 12 | 314 | 8.0 | 17.7 | 0.00 | 0.00 | 0.00 | 58 | 1010.2 |
| 20260504012037 | 12 | 314 | 6.4 | 22.5 | 0.00 | 0.00 | 0.00 | 58 | 1010.0 |
| 20260504011017 | 12 | 318 | 8.0 | 20.9 | 0.00 | 0.00 | 0.00 | 55 | 1010.0 |
| 20260504010017 | 12 | 314 | 9.7 | 20.9 | 0.00 | 0.00 | 0.00 | 52 | 1009.8 |
| 20260504005017 | 12 | 306 | 6.4 | 17.7 | 0.00 | 0.00 | 0.00 | 51 | 1009.6 |
| 20260504004017 | 11 | 0.0 | 1.6 | 0.00 | 0.00 | 0.00 | 56 | 1009.4 | |
| 20260504003017 | 12 | 68 | 0.0 | 1.6 | 0.00 | 0.00 | 0.00 | 53 | 1009.4 |
| 20260504002017 | 12 | 0.0 | 3.2 | 0.00 | 0.00 | 0.00 | 51 | 1009.2 | |
| 20260504001017 | 12 | 275 | 1.6 | 4.8 | 0.00 | 0.00 | 0.00 | 51 | 1009.2 |
| 20260504000017 | 12 | 282 | 1.6 | 9.7 | 0.00 | 0.00 | 0.00 | 51 | 1009.0 |
| 20260503235037 | 12 | 316 | 6.4 | 14.5 | 0.00 | 0.00 | 0.00 | 50 | 1009.3 |
| 20260503234017 | 12 | 319 | 6.4 | 19.3 | 0.00 | 0.00 | 0.00 | 51 | 1009.6 |
| 20260503233037 | 12 | 312 | 12.9 | 27.4 | 0.00 | 0.00 | 0.00 | 47 | 1009.8 |
| 20260503232017 | 12 | 318 | 6.4 | 12.9 | 0.00 | 0.00 | 0.00 | 46 | 1009.6 |
| 20260503231017 | 12 | 334 | 9.7 | 19.3 | 0.00 | 0.00 | 0.00 | 44 | 1009.5 |
| 20260503230037 | 12 | 304 | 3.2 | 12.9 | 0.00 | 0.00 | 0.00 | 44 | 1009.4 |
| 20260503225017 | 13 | 292 | 4.8 | 11.3 | 0.00 | 0.00 | 0.00 | 44 | 1009.2 |
| 20260503224017 | 13 | 285 | 4.8 | 9.7 | 0.00 | 0.00 | 0.00 | 43 | 1009.2 |
| 20260503223017 | 13 | 309 | 3.2 | 8.0 | 0.00 | 0.00 | 0.00 | 44 | 1009.1 |
| 20260503222037 | 13 | 290 | 3.2 | 9.7 | 0.00 | 0.00 | 0.00 | 44 | 1009.2 |
| 20260503221017 | 13 | 305 | 4.8 | 11.3 | 0.00 | 0.00 | 0.00 | 43 | 1009.4 |
| 20260503220017 | 13 | 295 | 6.4 | 14.5 | 0.00 | 0.00 | 0.00 | 45 | 1009.4 |
| 20260503215017 | 13 | 308 | 6.4 | 16.1 | 0.00 | 0.00 | 0.00 | 45 | 1009.4 |
| 20260503214017 | 13 | 285 | 4.8 | 9.7 | 0.00 | 0.00 | 0.00 | 46 | 1009.4 |
| 20260503213017 | 12 | 309 | 3.2 | 11.3 | 0.00 | 0.00 | 0.00 | 47 | 1009.3 |
| 20260503212017 | 12 | 292 | 4.8 | 16.1 | 0.00 | 0.00 | 0.00 | 46 | 1009.4 |
| 20260503211017 | 13 | 291 | 4.8 | 16.1 | 0.00 | 0.00 | 0.00 | 45 | 1009.5 |
| 20260503210037 | 13 | 311 | 6.4 | 16.1 | 0.00 | 0.00 | 0.00 | 44 | 1009.6 |
| 20260503205017 | 13 | 289 | 4.8 | 14.5 | 0.00 | 0.00 | 0.00 | 43 | 1009.6 |
| 20260503204017 | 13 | 290 | 8.0 | 19.3 | 0.00 | 0.00 | 0.00 | 42 | 1009.7 |
| 20260503203017 | 13 | 313 | 8.0 | 20.9 | 0.00 | 0.00 | 0.00 | 42 | 1009.7 |
| 20260503202017 | 12 | 316 | 6.4 | 16.1 | 0.00 | 0.00 | 0.00 | 44 | 1009.9 |
| 20260503201037 | 12 | 301 | 6.4 | 16.1 | 0.00 | 0.00 | 0.00 | 44 | 1010.0 |
| 20260503200017 | 12 | 322 | 9.7 | 22.5 | 0.00 | 0.00 | 0.00 | 43 | 1010.0 |
| 20260503195037 | 12 | 307 | 6.4 | 17.7 | 0.00 | 0.00 | 0.00 | 44 | 1010.1 |
| 20260503194017 | 12 | 289 | 6.4 | 19.3 | 0.00 | 0.00 | 0.00 | 44 | 1010.2 |
| 20260503193017 | 12 | 303 | 8.0 | 17.7 | 0.00 | 0.00 | 0.00 | 42 | 1010.3 |
| 20260503192037 | 12 | 321 | 6.4 | 24.1 | 0.00 | 0.00 | 0.00 | 41 | 1010.3 |
| 20260503191017 | 12 | 287 | 6.4 | 14.5 | 0.00 | 0.00 | 0.00 | 40 | 1010.4 |
| 20260503190017 | 12 | 281 | 6.4 | 17.7 | 0.00 | 0.00 | 0.00 | 40 | 1010.4 |
| 20260503185017 | 12 | 290 | 4.8 | 19.3 | 0.00 | 0.00 | 0.00 | 40 | 1010.5 |
| 20260503184017 | 12 | 304 | 11.3 | 19.3 | 0.00 | 0.00 | 0.00 | 39 | 1010.8 |
| 20260503183017 | 12 | 318 | 6.4 | 16.1 | 0.00 | 0.00 | 0.00 | 38 | 1010.8 |
| 20260503182037 | 12 | 291 | 8.0 | 17.7 | 0.00 | 0.00 | 0.00 | 40 | 1011.0 |
| 20260503181017 | 12 | 304 | 6.4 | 16.1 | 0.00 | 0.00 | 0.00 | 40 | 1011.1 |
| 20260503180017 | 12 | 293 | 8.0 | 19.3 | 0.00 | 0.00 | 0.00 | 39 | 1011.2 |
| 20260503175017 | 12 | 320 | 6.4 | 20.9 | 0.00 | 0.00 | 0.00 | 39 | 1011.4 |
| 20260503174017 | 12 | 294 | 6.4 | 22.5 | 0.00 | 0.00 | 0.00 | 39 | 1011.4 |
| 20260503173017 | 11 | 309 | 6.4 | 16.1 | 0.00 | 0.00 | 0.00 | 36 | 1011.5 |
| 20260503172017 | 11 | 279 | 6.4 | 14.5 | 0.00 | 0.00 | 0.00 | 37 | 1011.6 |
| 20260503171017 | 11 | 272 | 6.4 | 27.4 | 0.00 | 0.00 | 0.00 | 39 | 1011.7 |
| 20260503131017 | 6 | 335 | 4.8 | 12.9 | 0.00 | 0.00 | 0.00 | 67 | 1013.7 |
| 20260503081017 | 4 | 311 | 1.6 | 8.0 | 0.00 | 0.00 | 0.00 | 82 | 1013.0 |
| 20260503072017 | 4 | 300 | 1.6 | 6.4 | 0.00 | 0.00 | 0.00 | 84 | 1013.0 |
| 20260503071017 | 4 | 296 | 3.2 | 6.4 | 0.00 | 0.00 | 0.00 | 85 | 1013.0 |
| 20260503055017 | 2 | 0.0 | 0.0 | 0.00 | 0.00 | 0.00 | 92 | 1013.1 | |
| 20260503054017 | 2 | 0.0 | 0.0 | 0.00 | 0.00 | 0.00 | 92 | 1013.2 | |
| 20260503053017 | 2 | 0.0 | 0.0 | 0.00 | 0.00 | 0.00 | 92 | 1013.3 | |
| 20260503052017 | 2 | 0.0 | 0.0 | 0.00 | 0.00 | 0.00 | 92 | 1013.4 | |
| 20260503051037 | 2 | 0.0 | 0.0 | 0.00 | 0.00 | 0.00 | 93 | 1013.5 | |
| 20260503050017 | 1 | 0.0 | 0.0 | 0.00 | 0.00 | 0.00 | 93 | 1013.6 |